User: anonymous   Login
Location: Brno
(49.2000°N, 16.6330°E)
Time: 17:00:41
(UTC+01:00)
Language:

BREEZE M DEB (TANK) - Orbit

View from above orbital plane
View from above orbital plane
View from above satellite
View from above satellite

Ground track
Ground track

The orbit data is extracted from the following two-line orbital elements,

1 28359U 04022B   17019.54590214  .00002117  00000-0  23917-3 0  9999
2 28359  49.5029 195.2621 4675058 101.6568 312.7662  6.19506963276070
Epoch (UTC): 19 January 2017 13:06:05
Eccentricity: 0.4675058
inclination: 49.5029°
perigee height: 290 km
apogee height: 11999 km
right ascension of ascending node: 195.2621°
argument of perigee: 101.6568°
revolutions per day: 6.19506963
mean anomaly at epoch: 312.7662°
orbit number at epoch: 27607

The dashed part of the orbit path shows where the satellite is in the earth's shadow,  

DLR